Location: Windsor
(43.2292°N, 89.3015°W)
Time: 07:57:34
(UTC+00:00)

DIWATA 2B (PO-101) - Pass Details

Date: 05 July 2022
Orbit: 583 x 599 km, 98.0° (Epoch: 15 August)

Event Time Altitude Azimuth Distance (km) Brightness Sun altitude
Exits shadow 07:02:53 17° 113° (ESE) 1,522 ? -22.5°
Maximum altitude 07:05:09 27° 68° (ENE) 1,154 ? -22.4°
Drops below altitude 10° 07:08:44 10° 10° (N) 1,948 ? -22.2°
Sets 07:11:08 0° 359° (N) 2,855 ? -22.1°
